Flag for U.S.A. Weather past 2 weeks in Billings, Montana, U.S.A.

Now
39 °F

Overcast.


Feels Like: 30 °F
Forecast: 40 / 48 °F
Wind: 18 mph from Northeast

Location: Billings Logan International Airport

Current Time: Apr 26, 2015 at 11:16:41 AM

Latest Report: Apr 26, 2015 at 10:53 AM


Visibility: 10 mi

Pressure: 30.10 "Hg

Humidity: 79%

Dew point: 33 °F

Location of BillingsLocation

Historic Weather in Billings — Graph

°F

Billings temperature yesterday

Maximum temperature yesterday: 50 °F (at 5:53 PM)
Minimum temperature yesterday: 40 °F (at 6:53 AM)
Average temperature yesterday: 44 °F

Past Weeks' High & Low Weather Summary

 TemperatureHumidityPressure
High79 °F (Apr 14, 3:53 PM)100% (Apr 15, 8:02 AM)30.35 "Hg (Apr 15, 8:02 AM)
Low32 °F (Apr 15, 8:02 AM)8% (Apr 14, 3:53 PM)29.35 "Hg (Apr 14, 6:53 PM)
Average50 °F49%29.91 "Hg
* Reported Apr 11 9:53 AM — Apr 26 9:53 AM, Billings, Weather by CustomWeather, © 2015

Note: Actual official high and low records may vary slightly from our data, if they occured in-between our weather recording intervals... More about our weather records

Advertising

Billings weather history for previous 24 hours

 ConditionsComfort  
Time TempWeatherWind HumidityBarometerVisibility
9:53 AM
Sun, Apr 26
38 °FLow clouds.17 mph79%30.09 "Hg10 mi
8:53 AM38 °FLow clouds.17 mph83%30.07 "Hg10 mi
7:53 AM38 °FLow clouds.15 mph93%30.03 "Hg10 mi
6:53 AM38 °FMostly cloudy.9 mph93%30.01 "Hg10 mi
5:53 AM38 °FMostly cloudy.7 mph90%29.97 "Hg10 mi
4:53 AM39 °FOvercast.5 mph86%29.96 "Hg10 mi
3:53 AM39 °FOvercast.8 mph86%29.95 "Hg10 mi
2:53 AM39 °FMostly cloudy.7 mph86%29.93 "Hg10 mi
1:53 AM40 °FPassing clouds.5 mph83%29.93 "Hg10 mi
12:53 AM41 °FPassing clouds.3 mph80%29.93 "Hg10 mi
11:53 PM
Sat, Apr 25
44 °FPartly cloudy.7 mph71%29.91 "Hg10 mi
10:53 PM44 °FOvercast.6 mph73%29.92 "Hg10 mi
9:53 PM45 °FPassing clouds.7 mph68%29.91 "Hg10 mi
8:53 PM46 °FPartly sunny.9 mph66%29.89 "Hg10 mi
7:53 PM47 °FPartly sunny.7 mph61%29.87 "Hg10 mi
6:53 PM48 °FScattered clouds.8 mph59%29.84 "Hg10 mi
5:53 PM50 °FScattered clouds.5 mph57%29.84 "Hg10 mi
4:53 PM49 °FScattered clouds.10 mph61%29.83 "Hg10 mi
3:53 PM47 °FBroken clouds.9 mph69%29.84 "Hg10 mi
2:53 PM45 °FPartly sunny.8 mph74%29.84 "Hg10 mi
1:53 PM43 °FOvercast.3 mph76%29.83 "Hg10 mi
12:53 PM43 °FLight rain. More clouds than sun.8 mph79%29.83 "Hg10 mi
11:53 AM42 °FLight rain. Mostly cloudy.7 mph79%29.82 "Hg10 mi
Weather by CustomWeather, © 2015

See weather overviewHow to use our weather pages